TimeMST,TemperatureF,Dew PointF,Humidity,Sea Level PressureIn,VisibilityMPH,Wind Direction,Wind SpeedMPH,Gust SpeedMPH,PrecipitationIn,Events,Conditions,WindDirDegrees,DateUTC
12:53 AM,9.0,-9.0,44,29.83,10.0,East,11.5,-,N/A,,Clear,90,2013-01-12 07:53:00
1:53 AM,8.1,-9.0,46,29.84,10.0,ENE,8.1,-,N/A,,Clear,70,2013-01-12 08:53:00
2:53 AM,3.9,-9.0,55,29.88,10.0,NE,6.9,-,N/A,,Clear,40,2013-01-12 09:53:00
3:53 AM,5.0,-9.0,52,29.88,10.0,NE,8.1,-,N/A,,Clear,50,2013-01-12 10:53:00
4:53 AM,1.0,-11.0,57,29.91,10.0,NE,6.9,-,N/A,,Clear,40,2013-01-12 11:53:00
5:53 AM,5.0,-9.9,50,29.94,10.0,North,4.6,-,N/A,,Clear,360,2013-01-12 12:53:00
6:53 AM,6.1,-9.9,48,29.96,10.0,NW,6.9,-,N/A,,Clear,320,2013-01-12 13:53:00
7:53 AM,8.1,-9.0,46,29.98,10.0,North,4.6,-,N/A,,Clear,10,2013-01-12 14:53:00
8:53 AM,14.0,-8.0,37,29.97,10.0,Calm,Calm,-,N/A,,Partly Cloudy,0,2013-01-12 15:53:00
9:53 AM,18.0,-8.0,31,29.94,10.0,South,5.8,-,N/A,,Clear,170,2013-01-12 16:53:00
10:53 AM,21.9,-8.0,27,29.90,10.0,South,8.1,-,N/A,,Clear,180,2013-01-12 17:53:00
11:53 AM,25.0,-6.0,26,29.85,10.0,SSW,12.7,18.4,N/A,,Clear,200,2013-01-12 18:53:00
12:53 PM,27.0,-8.0,22,29.79,10.0,SSW,20.7,27.6,N/A,,Clear,200,2013-01-12 19:53:00
1:53 PM,27.0,-9.9,20,29.79,10.0,South,20.7,29.9,N/A,,Clear,190,2013-01-12 20:53:00
2:53 PM,26.1,-13.0,18,29.84,10.0,SW,21.9,31.1,0.00,,Clear,230,2013-01-12 21:53:00
3:53 PM,24.1,-9.9,22,29.86,10.0,WSW,19.6,27.6,N/A,,Clear,250,2013-01-12 22:53:00
4:53 PM,19.0,-11.0,26,29.93,10.0,SW,15.0,-,N/A,,Clear,230,2013-01-12 23:53:00
5:53 PM,14.0,-11.9,31,29.95,10.0,SW,9.2,-,N/A,,Partly Cloudy,230,2013-01-13 00:53:00
6:53 PM,12.9,-9.9,35,29.98,10.0,WNW,6.9,-,N/A,,Clear,290,2013-01-13 01:53:00
7:53 PM,10.9,-8.0,42,30.00,10.0,NW,10.4,-,N/A,,Clear,310,2013-01-13 02:53:00
8:53 PM,9.0,-8.0,46,29.99,10.0,NNW,5.8,-,N/A,,Clear,330,2013-01-13 03:53:00
9:53 PM,7.0,-8.0,51,29.99,10.0,NW,9.2,-,N/A,,Clear,320,2013-01-13 04:53:00
10:53 PM,6.1,-8.0,53,29.99,10.0,North,5.8,-,N/A,,Clear,10,2013-01-13 05:53:00
11:53 PM,10.0,-5.1,51,29.97,10.0,NNE,3.5,-,N/A,,Clear,20,2013-01-13 06:53:00